This is the latest recevied weather packets stored in our database for station/object KY4GW. If no packets are shown the sender has not sent any weather packets the latest 10 day(s).
| Time | Temp. | Humidity | Pressure | Rain* | Wind** | Luminosity | Snow |
|---|---|---|---|---|---|---|---|
| 1777929414 | 25° C | 48% | 1011.3 hPa | 0 mm | - | 171 W/m² | - |
| 1777929110 | 25.56° C | 49% | 1011.3 hPa | 0 mm | - | 211 W/m² | - |
| 1777928808 | 25° C | 46% | 1011.3 hPa | 0 mm | - | 529 W/m² | - |
| 1777928504 | 25.56° C | 47% | 1011.3 hPa | 0 mm | - | 315 W/m² | - |
| 1777928202 | 25.56° C | 46% | 1011.6 hPa | 0 mm | - | 507 W/m² | - |
| 1777926994 | 25.56° C | 46% | 1011.6 hPa | 0 mm | - | 637 W/m² | - |
| 1777926083 | 25.56° C | 48% | 1011.6 hPa | 0 mm | - | 634 W/m² | - |
| 1777925780 | 25.56° C | 49% | 1011.6 hPa | 0 mm | - | 644 W/m² | - |
| 1777925175 | 25° C | 51% | 1011.6 hPa | 0 mm | - | 688 W/m² | - |
| 1777923051 | 25° C | 52% | 1012.8 hPa | 0 mm | - | 677 W/m² | - |
| 1777920627 | 24.44° C | 53% | 1012.8 hPa | 0 mm | - | 813 W/m² | - |
| 1777917599 | 22.78° C | 55% | 1012.8 hPa | 0 mm | - | 910 W/m² | - |
| 1777916388 | 22.22° C | 59% | 1013.1 hPa | 0 mm | - | 859 W/m² | - |
| 1777916084 | 22.22° C | 58% | 1013.1 hPa | 0 mm | - | 864 W/m² | - |
| 1777915782 | 22.22° C | 56% | 1013.1 hPa | 0 mm | - | 869 W/m² | - |
| 1777915174 | 21.67° C | 59% | 1013.1 hPa | 0 mm | - | 873 W/m² | - |
| 1777914872 | 21.67° C | 56% | 1013.4 hPa | 0 mm | - | 871 W/m² | - |
| 1777914568 | 21.67° C | 59% | 1013.4 hPa | 0 mm | - | 878 W/m² | - |
| 1777913962 | 21.11° C | 57% | 1013.4 hPa | 0 mm | - | 878 W/m² | - |
| 1777913052 | 20.56° C | 60% | 1013.4 hPa | 0 mm | - | 833 W/m² | - |
| 1777912748 | 20° C | 62% | 1013.4 hPa | 0 mm | - | 986 W/m² | - |
| 1777912443 | 19.44° C | 63% | 1013.4 hPa | 0 mm | - | 882 W/m² | - |
| 1777912140 | 18.89° C | 64% | 1013.8 hPa | 0 mm | - | 870 W/m² | - |
| 1777911533 | 19.44° C | 67% | 1013.8 hPa | 0 mm | - | 325 W/m² | - |
| 1777910624 | 19.44° C | 65% | 1013.8 hPa | 0 mm | - | 895 W/m² | - |
* Rain latest hour (hover to see other rain measurements)
** Current wind speed in m/s (hover to see current wind gust speed)